Home   Weather   New York   Past weeks

Flag for USA Past Weather in New York, New York, USA — Yesterday and Last 2 Weeks

Now
41 °F

Light rain. Fog.


Feels Like: 39 °F
Forecast: 39 / 45 °F
Wind: 3 mph from South

Location: New York City - Central Park

Current Time: Jan 20, 2017 at 5:25:56 pm

Latest Report: Jan 20, 2017 at 4:51 pm


Visibility: 4 mi

Pressure: 29.92 "Hg

Humidity: 89%

Dew Point: 38 °F

Location of New YorkLocation

Past Weather in New York — Graph

°F

New York Temperature Yesterday

Maximum temperature yesterday: 48 °F (at 12:51 pm)
Minimum temperature yesterday: 39 °F (at 12:51 am)
Average temperature yesterday: 43 °F

High & Low Weather Summary for the Past Weeks

 TemperatureHumidityPressure
High65 °F (Jan 12, 1:51 pm)100% (Jan 18, 2:20 am)30.76 "Hg (Jan 18, 2:20 am)
Low15 °F (Jan 9, 3:51 am)32% (Jan 13, 3:51 pm)29.86 "Hg (Jan 18, 4:51 am)
Average36 °F67%30.25 "Hg
* Reported Jan 5 3:51 pm — Jan 20 3:59 pm, New York, Weather by CustomWeather, © 2017

Note: Actual official high and low records may vary slightly from our data, if they occured in-between our weather recording intervals... More about our weather records

Advertising

New York Weather History for the Previous 24 Hours

Scroll right to see more
 ConditionsComfort  
Time TempWeatherWind HumidityBarometerVisibility
3:59 pm
Fri, Jan 20
42 °FLight rain. Fog.5 mph85%29.95 "Hg6 mi
3:51 pm42 °FMore clouds than sun.3 mph82%29.93 "Hg7 mi
3:01 pm45 °FScattered clouds.3 mph65%29.95 "Hg10 mi
1:51 pm45 °FPartly sunny.3 mph63%29.93 "Hg10 mi
12:51 pm45 °FOvercast.6 mph63%29.96 "Hg10 mi
11:51 am44 °FOvercast.No wind68%29.98 "Hg10 mi
10:51 am42 °FOvercast.No wind68%30.03 "Hg10 mi
9:51 am42 °FOvercast.6 mph68%30.01 "Hg10 mi
8:51 am41 °FOvercast.6 mph67%30.00 "Hg10 mi
7:51 am40 °FOvercast.6 mph70%30.00 "Hg10 mi
6:51 am40 °FOvercast.5 mph70%30.00 "Hg10 mi
5:51 am40 °FOvercast.3 mph70%30.00 "Hg10 mi
4:51 am40 °FOvercast.5 mph70%30.01 "Hg10 mi
3:51 am40 °FOvercast.6 mph68%30.01 "Hg10 mi
2:51 am41 °FOvercast.10 mph67%30.02 "Hg10 mi
1:51 am42 °FOvercast.3 mph68%30.03 "Hg10 mi
12:51 am42 °FOvercast.7 mph71%30.03 "Hg10 mi
11:51 pm
Thu, Jan 19
43 °FOvercast.No wind68%30.01 "Hg10 mi
10:51 pm43 °FOvercast.3 mph68%30.01 "Hg10 mi
10:32 pm42 °FPassing clouds.7 mph68%30.03 "Hg10 mi
9:51 pm42 °FPassing clouds.5 mph68%30.01 "Hg10 mi
8:51 pm42 °FPassing clouds.No wind68%30.03 "Hg10 mi
7:51 pm43 °FOvercast.5 mph65%30.04 "Hg10 mi
6:51 pm43 °FOvercast.7 mph65%30.03 "Hg10 mi
5:51 pm44 °FOvercast.5 mph65%30.00 "Hg10 mi
Weather by CustomWeather, © 2017

See weather overviewHow to use our weather pages